{"data":{"norad_id":68260,"epoch":"2026-09-19T23:07:45.693120Z","epoch_age_seconds":97938,"freshness":"FRESH","line1":"1 68260U 26054AE  26262.96372330  .00015708  00000+0  47503-3 0  9992","line2":"2 68260  53.1585 103.9934 0001104 103.7118 256.4008 15.34401093 28888","mean_motion":15.34401093,"eccentricity":0.0001104,"inclination_deg":53.1585,"raan_deg":103.9934,"arg_perigee_deg":103.7118,"mean_anomaly_deg":256.4008,"bstar":0.00047503,"rev_number":2888,"period_min":93.847691230757,"perigee_km":461.94476317882,"apogee_km":463.45521998657,"semimajor_km":6840.8369915827,"source":"CELESTRAK","updated_at":"2026-09-20T09:00:43.845203Z"}}